When you browse on this site, cookies collect data to enhance your experience and personalize the content and advertising you see.
Visit our Privacy Policy to learn more. By continuing to use the site, you agree to this use of cookies and data.
  • en France
  • Liste des pays
  • À 7 jours
  • Température de l'eau
  • Carte satellitaire
  • Carte météo
  • Widgets météo
  • user-avatar
    Se connecter

    Météo par heure à Borovets

    Ce jour, 23 Mai, Jeudi

    Heure Température Précipitation Vent Pression Humidité
    00:00 +13°C° 0 mm 1 m/s 708 mmHg 84%
    01:00 +12°C° 0 mm 1 m/s 708 mmHg 85%
    02:00 +12°C° 0 mm 1 m/s 708 mmHg 87%
    03:00 +12°C° 0 mm 1 m/s 708 mmHg 88%
    04:00 +11°C° 0 mm 1 m/s 708 mmHg 89%
    05:00 +11°C° 0 mm 1 m/s 708 mmHg 90%
    06:00 +13°C° 0 mm 1 m/s 709 mmHg 84%
    07:00 +15°C° 0 mm 1 m/s 709 mmHg 79%
    08:00 +16°C° 0 mm 1 m/s 709 mmHg 73%
    09:00 +18°C° 0.1 mm 2 m/s 709 mmHg 68%
    10:00 +19°C° 0.1 mm 2 m/s 709 mmHg 62%
    11:00 +20°C° 0.1 mm 2 m/s 709 mmHg 57%
    12:00 +20°C° 0.5 mm 2 m/s 709 mmHg 59%
    13:00 +20°C° 0.5 mm 2 m/s 709 mmHg 61%
    14:00 +21°C° 0.5 mm 3 m/s 709 mmHg 63%
    15:00 +20°C° 0.5 mm 2 m/s 708 mmHg 64%
    16:00 +20°C° 0.5 mm 2 m/s 708 mmHg 65%
    17:00 +20°C° 0.5 mm 2 m/s 708 mmHg 67%
    18:00 +19°C° 0.2 mm 1 m/s 707 mmHg 72%
    19:00 +16°C° 0.2 mm 1 m/s 707 mmHg 78%
    20:00 +15°C° 0.2 mm 1 m/s 707 mmHg 84%
    21:00 +14°C° 0.2 mm 1 m/s 707 mmHg 87%
    22:00 +13°C° 0.2 mm 1 m/s 707 mmHg 89%
    23:00 +12°C° 0.2 mm 1 m/s 707 mmHg 91%

    Demain, 24 Mai, Vendredi

    Heure Température Précipitation Vent Pression Humidité
    00:00 +12°C° 0 mm 1 m/s 707 mmHg 92%
    01:00 +12°C° 0 mm 1 m/s 707 mmHg 93%
    02:00 +11°C° 0 mm 1 m/s 707 mmHg 94%
    03:00 +11°C° 0 mm 1 m/s 707 mmHg 94%
    04:00 +11°C° 0 mm 1 m/s 707 mmHg 94%
    05:00 +11°C° 0 mm 1 m/s 707 mmHg 94%
    06:00 +12°C° 0 mm 1 m/s 707 mmHg 90%
    07:00 +13°C° 0 mm 2 m/s 707 mmHg 86%
    08:00 +14°C° 0 mm 2 m/s 707 mmHg 82%
    09:00 +15°C° 0.1 mm 2 m/s 707 mmHg 79%
    10:00 +14°C° 0.1 mm 3 m/s 707 mmHg 75%
    11:00 +16°C° 0.1 mm 3 m/s 708 mmHg 71%
    12:00 +17°C° 0 mm 3 m/s 707 mmHg 65%
    13:00 +18°C° 0 mm 3 m/s 707 mmHg 59%
    14:00 +20°C° 0 mm 4 m/s 707 mmHg 53%
    15:00 +19°C° 0 mm 4 m/s 707 mmHg 54%
    16:00 +19°C° 0 mm 4 m/s 707 mmHg 55%
    17:00 +19°C° 0 mm 4 m/s 706 mmHg 56%
    18:00 +17°C° 0 mm 3 m/s 706 mmHg 64%
    19:00 +14°C° 0 mm 3 m/s 706 mmHg 72%
    20:00 +14°C° 0 mm 2 m/s 706 mmHg 79%
    21:00 +13°C° 0 mm 2 m/s 707 mmHg 83%
    22:00 +12°C° 0 mm 2 m/s 707 mmHg 86%
    23:00 +12°C° 0 mm 2 m/s 707 mmHg 89%

    Après-demain, 25 Mai, Samedi

    Heure Température Précipitation Vent Pression Humidité
    00:00 +10°C° 0 mm 2 m/s 707 mmHg 90%
    01:00 +10°C° 0 mm 2 m/s 707 mmHg 91%
    02:00 +9°C° 0 mm 2 m/s 707 mmHg 92%
    03:00 +9°C° 0 mm 2 m/s 707 mmHg 92%
    04:00 +9°C° 0 mm 2 m/s 707 mmHg 92%
    05:00 +10°C° 0 mm 1 m/s 707 mmHg 92%
    06:00 +12°C° 0 mm 2 m/s 707 mmHg 85%
    07:00 +13°C° 0 mm 2 m/s 708 mmHg 79%
    08:00 +14°C° 0 mm 3 m/s 708 mmHg 72%
    09:00 +17°C° 0 mm 3 m/s 709 mmHg 67%
    10:00 +18°C° 0 mm 3 m/s 709 mmHg 63%
    11:00 +19°C° 0 mm 3 m/s 709 mmHg 59%
    12:00 +20°C° 0 mm 4 m/s 709 mmHg 56%
    13:00 +21°C° 0 mm 4 m/s 709 mmHg 54%
    14:00 +21°C° 0 mm 4 m/s 709 mmHg 52%
    15:00 +21°C° 0 mm 3 m/s 708 mmHg 51%
    16:00 +21°C° 0 mm 3 m/s 708 mmHg 51%
    17:00 +22°C° 0 mm 3 m/s 708 mmHg 51%
    18:00 +20°C° 0 mm 2 m/s 708 mmHg 59%
    19:00 +18°C° 0 mm 2 m/s 708 mmHg 67%
    20:00 +16°C° 0 mm 1 m/s 708 mmHg 75%
    21:00 +15°C° 0 mm 1 m/s 708 mmHg 78%
    22:00 +14°C° 0 mm 1 m/s 709 mmHg 82%
    23:00 +13°C° 0 mm 1 m/s 709 mmHg 85%

    26 Mai, Dimanche

    Heure Température Précipitation Vent Pression Humidité
    00:00 +13°C° 0 mm 1 m/s 709 mmHg 85%
    01:00 +12°C° 0 mm 1 m/s 709 mmHg 85%
    02:00 +12°C° 0 mm 1 m/s 709 mmHg 86%
    03:00 +12°C° 0 mm 1 m/s 709 mmHg 85%
    04:00 +12°C° 0 mm 1 m/s 709 mmHg 85%
    05:00 +11°C° 0 mm 1 m/s 708 mmHg 84%
    06:00 +14°C° 0 mm 1 m/s 709 mmHg 77%
    07:00 +16°C° 0 mm 1 m/s 709 mmHg 69%
    08:00 +19°C° 0 mm 1 m/s 710 mmHg 61%
    09:00 +21°C° 0 mm 1 m/s 710 mmHg 54%
    10:00 +24°C° 0 mm 1 m/s 710 mmHg 48%
    11:00 +26°C° 0 mm 1 m/s 710 mmHg 41%
    12:00 +26°C° 0 mm 1 m/s 710 mmHg 39%
    13:00 +27°C° 0 mm 2 m/s 710 mmHg 38%
    14:00 +28°C° 0 mm 2 m/s 710 mmHg 36%
    15:00 +26°C° 0 mm 2 m/s 710 mmHg 44%
    16:00 +25°C° 0 mm 2 m/s 710 mmHg 52%
    17:00 +23°C° 0 mm 2 m/s 709 mmHg 60%
    18:00 +22°C° 0 mm 1 m/s 709 mmHg 65%
    19:00 +20°C° 0 mm 1 m/s 709 mmHg 69%
    20:00 +19°C° 0 mm 1 m/s 709 mmHg 73%
    21:00 +18°C° 0 mm 1 m/s 709 mmHg 76%
    22:00 +16°C° 0 mm 1 m/s 709 mmHg 79%
    23:00 +16°C° 0 mm 1 m/s 709 mmHg 82%

    27 Mai, Lundi

    Heure Température Précipitation Vent Pression Humidité
    00:00 +15°C° 0 mm 1 m/s 709 mmHg 84%
    01:00 +15°C° 0 mm 1 m/s 709 mmHg 85%
    02:00 +15°C° 0 mm 1 m/s 709 mmHg 87%
    03:00 +14°C° 0 mm 1 m/s 709 mmHg 87%
    04:00 +14°C° 0 mm 1 m/s 709 mmHg 87%
    05:00 +14°C° 0 mm 1 m/s 708 mmHg 87%
    06:00 +16°C° 0 mm 1 m/s 709 mmHg 80%
    07:00 +19°C° 0 mm 1 m/s 709 mmHg 72%
    08:00 +21°C° 0 mm 1 m/s 709 mmHg 65%
    09:00 +23°C° 0 mm 1 m/s 709 mmHg 61%
    10:00 +24°C° 0 mm 2 m/s 709 mmHg 56%
    11:00 +26°C° 0 mm 2 m/s 709 mmHg 51%
    12:00 +25°C° 0.3 mm 2 m/s 708 mmHg 57%
    13:00 +24°C° 0.3 mm 3 m/s 708 mmHg 64%
    14:00 +22°C° 0.3 mm 3 m/s 708 mmHg 70%
    15:00 +24°C° 0.1 mm 3 m/s 708 mmHg 65%
    16:00 +24°C° 0.1 mm 2 m/s 707 mmHg 60%
    17:00 +25°C° 0.1 mm 2 m/s 707 mmHg 55%
    18:00 +23°C° 0 mm 2 m/s 707 mmHg 61%
    19:00 +21°C° 0 mm 2 m/s 706 mmHg 66%
    20:00 +20°C° 0 mm 1 m/s 706 mmHg 72%
    21:00 +19°C° 0.1 mm 1 m/s 706 mmHg 75%
    22:00 +18°C° 0.1 mm 1 m/s 706 mmHg 78%
    23:00 +16°C° 0.1 mm 1 m/s 706 mmHg 80%

    28 Mai, Mardi

    Heure Température Précipitation Vent Pression Humidité
    00:00 +15°C° 0 mm 1 m/s 705 mmHg 80%
    01:00 +14°C° 0 mm 1 m/s 705 mmHg 80%
    02:00 +14°C° 0 mm 1 m/s 705 mmHg 80%
    03:00 +13°C° 0 mm 1 m/s 705 mmHg 79%
    04:00 +13°C° 0 mm 1 m/s 705 mmHg 77%
    05:00 +12°C° 0 mm 1 m/s 705 mmHg 76%
    06:00 +15°C° 0 mm 1 m/s 705 mmHg 69%
    07:00 +18°C° 0 mm 1 m/s 706 mmHg 62%
    08:00 +20°C° 0 mm 1 m/s 706 mmHg 54%
    09:00 +21°C° 0 mm 2 m/s 706 mmHg 49%
    10:00 +24°C° 0 mm 2 m/s 706 mmHg 43%
    11:00 +26°C° 0 mm 3 m/s 706 mmHg 37%
    12:00 +27°C° 0 mm 3 m/s 706 mmHg 35%
    13:00 +27°C° 0 mm 4 m/s 706 mmHg 34%
    14:00 +28°C° 0 mm 4 m/s 706 mmHg 32%
    15:00 +27°C° 0 mm 4 m/s 706 mmHg 35%
    16:00 +27°C° 0 mm 4 m/s 706 mmHg 38%
    17:00 +27°C° 0 mm 4 m/s 706 mmHg 40%
    18:00 +24°C° 0 mm 3 m/s 706 mmHg 48%
    19:00 +21°C° 0 mm 3 m/s 706 mmHg 55%
    20:00 +19°C° 0 mm 2 m/s 706 mmHg 63%
    21:00 +18°C° 0 mm 2 m/s 706 mmHg 66%
    22:00 +18°C° 0 mm 1 m/s 706 mmHg 69%
    23:00 +16°C° 0 mm 1 m/s 707 mmHg 72%
    Voir plus